| time (UTC) | temp F | wind direction | speed MPH | gust MPH | rain 1hr in | rain 24hr in | rain mn in | humidity % | barometer mb |
| 20260906224004 | 87 | 270 | 7.0 | 12.0 | 0.00 | 0.23 | 0.23 | 72 | 1009.1 |
| 20260906223504 | 88 | 273 | 6.0 | 11.0 | 0.00 | 0.23 | 0.23 | 72 | 1009.1 |
| 20260906223003 | 88 | 280 | 6.0 | 11.0 | 0.00 | 0.23 | 0.23 | 72 | 1009.1 |
| 20260906222504 | 88 | 280 | 6.0 | 11.0 | 0.00 | 0.23 | 0.23 | 72 | 1009.2 |
| 20260906222004 | 88 | 273 | 6.0 | 12.0 | 0.00 | 0.23 | 0.23 | 71 | 1009.1 |
| 20260906221525 | 88 | 277 | 6.0 | 12.0 | 0.00 | 0.23 | 0.23 | 72 | 1009.2 |
| 20260906221004 | 88 | 284 | 6.0 | 12.0 | 0.00 | 0.23 | 0.23 | 71 | 1009.4 |
| 20260906220504 | 88 | 285 | 7.0 | 12.0 | 0.00 | 0.23 | 0.23 | 71 | 1009.4 |
| 20260906220025 | 88 | 282 | 7.0 | 13.0 | 0.00 | 0.23 | 0.23 | 71 | 1009.6 |
| 20260906215504 | 88 | 282 | 7.0 | 13.0 | 0.00 | 0.23 | 0.23 | 71 | 1009.6 |
| 20260906215003 | 88 | 287 | 7.0 | 12.0 | 0.00 | 0.23 | 0.23 | 71 | 1009.7 |
| 20260906214504 | 88 | 290 | 6.0 | 12.0 | 0.00 | 0.23 | 0.23 | 70 | 1009.7 |
| 20260906214003 | 88 | 297 | 6.0 | 11.0 | 0.00 | 0.23 | 0.23 | 71 | 1009.6 |
| 20260906213503 | 88 | 285 | 7.0 | 12.0 | 0.00 | 0.23 | 0.23 | 70 | 1009.6 |
| 20260906213003 | 88 | 273 | 8.0 | 13.0 | 0.00 | 0.23 | 0.23 | 70 | 1009.7 |
| 20260906212504 | 88 | 279 | 7.0 | 13.0 | 0.00 | 0.23 | 0.23 | 69 | 1009.8 |
| 20260906212004 | 89 | 281 | 7.0 | 13.0 | 0.00 | 0.23 | 0.23 | 70 | 1009.7 |
| 20260906211503 | 89 | 275 | 7.0 | 13.0 | 0.00 | 0.23 | 0.23 | 69 | 1009.7 |
| 20260906211004 | 89 | 276 | 7.0 | 14.0 | 0.00 | 0.23 | 0.23 | 68 | 1009.6 |
| 20260906210503 | 89 | 280 | 7.0 | 14.0 | 0.00 | 0.23 | 0.23 | 68 | 1009.7 |
| 20260906210004 | 89 | 285 | 7.0 | 12.0 | 0.00 | 0.23 | 0.23 | 68 | 1009.8 |
| 20260906205524 | 89 | 275 | 6.0 | 12.0 | 0.00 | 0.23 | 0.23 | 67 | 1009.7 |
| 20260906205004 | 89 | 270 | 6.0 | 12.0 | 0.00 | 0.23 | 0.23 | 66 | 1009.8 |
| 20260906204503 | 89 | 271 | 7.0 | 12.0 | 0.00 | 0.23 | 0.23 | 66 | 1010.0 |
| 20260906204025 | 89 | 273 | 7.0 | 14.0 | 0.00 | 0.23 | 0.23 | 66 | 1010.0 |
| 20260906203503 | 89 | 275 | 8.0 | 15.0 | 0.00 | 0.23 | 0.23 | 66 | 1010.1 |
| 20260906203004 | 89 | 271 | 8.0 | 15.0 | 0.00 | 0.23 | 0.23 | 67 | 1010.1 |
| 20260906202504 | 89 | 269 | 7.0 | 14.0 | 0.00 | 0.23 | 0.23 | 66 | 1010.1 |
| 20260906202003 | 90 | 274 | 8.0 | 15.0 | 0.00 | 0.23 | 0.23 | 68 | 1010.2 |
| 20260906201504 | 89 | 280 | 8.0 | 15.0 | 0.00 | 0.23 | 0.23 | 67 | 1010.4 |
| 20260906201004 | 90 | 281 | 8.0 | 14.0 | 0.00 | 0.23 | 0.23 | 69 | 1010.5 |
| 20260906200503 | 88 | 278 | 9.0 | 14.0 | 0.00 | 0.23 | 0.23 | 70 | 1010.6 |
| 20260906200004 | 89 | 279 | 8.0 | 15.0 | 0.00 | 0.23 | 0.23 | 70 | 1010.7 |
| 20260906195504 | 89 | 276 | 8.0 | 15.0 | 0.00 | 0.23 | 0.23 | 70 | 1010.7 |
| 20260906195004 | 89 | 278 | 8.0 | 15.0 | 0.00 | 0.23 | 0.23 | 69 | 1010.7 |
| 20260906194504 | 89 | 277 | 7.0 | 14.0 | 0.00 | 0.23 | 0.23 | 69 | 1010.8 |
| 20260906194004 | 89 | 269 | 8.0 | 14.0 | 0.00 | 0.23 | 0.23 | 68 | 1010.8 |
| 20260906193503 | 89 | 273 | 8.0 | 13.0 | 0.00 | 0.23 | 0.23 | 67 | 1011.0 |
| 20260906193004 | 90 | 276 | 7.0 | 13.0 | 0.00 | 0.23 | 0.23 | 68 | 1010.9 |
| 20260906192504 | 90 | 275 | 7.0 | 13.0 | 0.00 | 0.23 | 0.23 | 67 | 1010.9 |
| 20260906192025 | 89 | 273 | 7.0 | 13.0 | 0.00 | 0.23 | 0.23 | 68 | 1010.9 |
| 20260906191525 | 89 | 273 | 7.0 | 12.0 | 0.00 | 0.23 | 0.23 | 67 | 1011.1 |
| 20260906191004 | 89 | 276 | 6.0 | 11.0 | 0.00 | 0.23 | 0.23 | 68 | 1011.2 |
| 20260906190504 | 90 | 271 | 7.0 | 13.0 | 0.00 | 0.23 | 0.23 | 68 | 1011.2 |
| 20260906190004 | 89 | 270 | 7.0 | 13.0 | 0.00 | 0.23 | 0.23 | 67 | 1011.2 |
| 20260906185505 | 89 | 272 | 8.0 | 13.0 | 0.00 | 0.23 | 0.23 | 68 | 1011.3 |
| 20260906185004 | 89 | 271 | 8.0 | 13.0 | 0.00 | 0.23 | 0.23 | 69 | 1011.3 |
| 20260906184504 | 89 | 272 | 8.0 | 13.0 | 0.00 | 0.23 | 0.23 | 69 | 1011.4 |
| 20260906184024 | 89 | 275 | 8.0 | 13.0 | 0.00 | 0.23 | 0.23 | 69 | 1011.5 |
| 20260906183504 | 89 | 276 | 8.0 | 13.0 | 0.00 | 0.23 | 0.23 | 69 | 1011.4 |
| 20260906183004 | 89 | 272 | 8.0 | 12.0 | 0.00 | 0.23 | 0.23 | 69 | 1011.5 |
| 20260906182525 | 88 | 270 | 8.0 | 13.0 | 0.00 | 0.23 | 0.23 | 69 | 1011.5 |
| 20260906182003 | 89 | 277 | 8.0 | 13.0 | 0.00 | 0.23 | 0.23 | 70 | 1011.5 |
| 20260906181525 | 89 | 280 | 7.0 | 12.0 | 0.00 | 0.23 | 0.23 | 71 | 1011.5 |
| 20260906181004 | 89 | 274 | 8.0 | 13.0 | 0.00 | 0.23 | 0.23 | 69 | 1011.5 |
| 20260906180503 | 89 | 273 | 8.0 | 13.0 | 0.00 | 0.23 | 0.23 | 71 | 1011.6 |
| 20260906180004 | 89 | 277 | 7.0 | 13.0 | 0.00 | 0.23 | 0.23 | 70 | 1011.6 |
| 20260906175504 | 89 | 276 | 8.0 | 13.0 | 0.00 | 0.23 | 0.23 | 71 | 1011.6 |
| 20260906175004 | 88 | 273 | 7.0 | 13.0 | 0.00 | 0.23 | 0.23 | 69 | 1011.6 |
| 20260906174504 | 89 | 273 | 7.0 | 13.0 | 0.00 | 0.23 | 0.23 | 69 | 1011.7 |
| 20260906174004 | 89 | 272 | 6.0 | 13.0 | 0.00 | 0.23 | 0.23 | 70 | 1011.7 |
| 20260906173503 | 89 | 274 | 7.0 | 12.0 | 0.00 | 0.23 | 0.23 | 71 | 1011.8 |
| 20260906173004 | 88 | 279 | 7.0 | 13.0 | 0.00 | 0.23 | 0.23 | 71 | 1011.8 |
| 20260906172503 | 89 | 280 | 7.0 | 13.0 | 0.00 | 0.23 | 0.23 | 71 | 1011.9 |
| 20260906172003 | 89 | 278 | 8.0 | 12.0 | 0.00 | 0.23 | 0.23 | 70 | 1012.0 |
| 20260906171503 | 89 | 275 | 8.0 | 13.0 | 0.00 | 0.23 | 0.23 | 71 | 1012.1 |
| 20260906171003 | 89 | 276 | 7.0 | 13.0 | 0.00 | 0.23 | 0.23 | 70 | 1012.0 |
| 20260906170504 | 90 | 278 | 6.0 | 12.0 | 0.00 | 0.23 | 0.23 | 68 | 1012.1 |
| 20260906170004 | 89 | 274 | 7.0 | 13.0 | 0.00 | 0.23 | 0.23 | 68 | 1012.2 |
| 20260906165504 | 88 | 271 | 6.0 | 13.0 | 0.00 | 0.23 | 0.23 | 70 | 1012.2 |
| 20260906165004 | 89 | 270 | 5.0 | 11.0 | 0.00 | 0.23 | 0.23 | 69 | 1012.2 |
| 20260906164503 | 88 | 271 | 6.0 | 11.0 | 0.00 | 0.23 | 0.23 | 71 | 1012.2 |
| 20260906164024 | 88 | 275 | 6.0 | 11.0 | 0.00 | 0.23 | 0.23 | 70 | 1012.2 |
| 20260906163504 | 88 | 276 | 6.0 | 11.0 | 0.00 | 0.23 | 0.23 | 70 | 1012.3 |
| 20260906163024 | 88 | 275 | 6.0 | 11.0 | 0.00 | 0.23 | 0.23 | 72 | 1012.4 |
| 20260906162504 | 89 | 275 | 5.0 | 11.0 | 0.00 | 0.23 | 0.23 | 70 | 1012.4 |
| 20260906162003 | 88 | 273 | 4.0 | 7.0 | 0.00 | 0.23 | 0.23 | 69 | 1012.5 |
| 20260906161503 | 88 | 273 | 5.0 | 9.0 | 0.00 | 0.23 | 0.23 | 71 | 1012.6 |
| 20260906161004 | 88 | 274 | 5.0 | 11.0 | 0.00 | 0.23 | 0.23 | 70 | 1012.6 |
| 20260906160503 | 88 | 276 | 6.0 | 11.0 | 0.00 | 0.23 | 0.23 | 72 | 1012.7 |
| 20260906160004 | 88 | 277 | 5.0 | 10.0 | 0.00 | 0.23 | 0.23 | 71 | 1012.7 |
| 20260906155503 | 88 | 275 | 4.0 | 9.0 | 0.00 | 0.23 | 0.23 | 70 | 1012.8 |
| 20260906155003 | 88 | 273 | 4.0 | 11.0 | 0.00 | 0.23 | 0.23 | 69 | 1012.7 |
| 20260906154524 | 88 | 276 | 4.0 | 11.0 | 0.00 | 0.23 | 0.23 | 67 | 1012.7 |
| 20260906154024 | 88 | 281 | 3.0 | 7.0 | 0.00 | 0.23 | 0.23 | 70 | 1012.8 |
| 20260906153504 | 88 | 273 | 3.0 | 7.0 | 0.00 | 0.23 | 0.23 | 68 | 1013.0 |
| 20260906153004 | 87 | 272 | 4.0 | 7.0 | 0.00 | 0.23 | 0.23 | 70 | 1012.9 |
| 20260906152525 | 87 | 278 | 4.0 | 7.0 | 0.00 | 0.23 | 0.23 | 71 | 1012.9 |
| 20260906152004 | 88 | 279 | 3.0 | 7.0 | 0.00 | 0.23 | 0.23 | 73 | 1012.8 |
| 20260906151504 | 88 | 271 | 2.0 | 7.0 | 0.00 | 0.23 | 0.23 | 73 | 1012.8 |
| 20260906151004 | 87 | 273 | 2.0 | 6.0 | 0.00 | 0.23 | 0.23 | 74 | 1012.8 |
| 20260906150504 | 87 | 278 | 0.0 | 6.0 | 0.00 | 0.23 | 0.23 | 74 | 1012.7 |
| 20260906150004 | 88 | 0 | 0.0 | 0.0 | 0.00 | 0.23 | 0.23 | 77 | 1012.7 |
| 20260906145504 | 88 | 0 | 0.0 | 0.0 | 0.01 | 0.23 | 0.23 | 81 | 1012.7 |
| 20260906145004 | 85 | 0 | 0.0 | 0.0 | 0.08 | 0.23 | 0.23 | 80 | 1012.7 |
| 20260906144504 | 86 | 0 | 0.0 | 0.0 | 0.13 | 0.23 | 0.23 | 81 | 1012.7 |
| 20260906144003 | 85 | 136 | 0.0 | 3.0 | 0.16 | 0.23 | 0.23 | 81 | 1012.7 |
| 20260906143504 | 84 | 136 | 1.0 | 3.0 | 0.16 | 0.23 | 0.23 | 83 | 1012.8 |
| 20260906143004 | 83 | 136 | 0.0 | 2.0 | 0.16 | 0.23 | 0.23 | 85 | 1012.8 |
| 20260906142504 | 82 | 136 | 0.0 | 2.0 | 0.19 | 0.23 | 0.23 | 85 | 1013.0 |
| 20260906142025 | 81 | 136 | 0.0 | 2.0 | 0.23 | 0.23 | 0.23 | 87 | 1013.1 |
| 20260906141504 | 81 | 136 | 0.0 | 1.0 | 0.23 | 0.23 | 0.23 | 88 | 1012.9 |
| 20260906141004 | 79 | 136 | 0.0 | 2.0 | 0.23 | 0.23 | 0.23 | 86 | 1012.8 |
| 20260906140504 | 80 | 146 | 1.0 | 4.0 | 0.23 | 0.23 | 0.23 | 87 | 1012.9 |
| 20260906140004 | 80 | 164 | 2.0 | 5.0 | 0.23 | 0.23 | 0.23 | 87 | 1013.1 |
| 20260906135504 | 80 | 169 | 1.0 | 5.0 | 0.22 | 0.22 | 0.22 | 87 | 1013.1 |
| 20260906135004 | 82 | 150 | 0.0 | 3.0 | 0.15 | 0.15 | 0.15 | 87 | 1013.2 |
| 20260906134503 | 82 | 148 | 0.0 | 1.0 | 0.10 | 0.10 | 0.10 | 87 | 1013.1 |
| 20260906134004 | 83 | 149 | 0.0 | 1.0 | 0.07 | 0.07 | 0.07 | 86 | 1013.1 |
| 20260906133503 | 83 | 140 | 0.0 | 2.0 | 0.07 | 0.07 | 0.07 | 84 | 1013.1 |
| 20260906133005 | 83 | 131 | 0.0 | 2.0 | 0.07 | 0.07 | 0.07 | 84 | 1013.0 |
| 20260906132504 | 85 | 80 | 0.0 | 2.0 | 0.04 | 0.04 | 0.04 | 80 | 1012.9 |
| 20260906132003 | 86 | 90 | 1.0 | 2.0 | 0.00 | 0.00 | 0.01 | 77 | 1012.8 |
| 20260906131503 | 87 | 103 | 1.0 | 4.0 | 0.00 | 0.00 | 0.00 | 77 | 1012.7 |
| 20260906131004 | 87 | 110 | 1.0 | 4.0 | 0.00 | 0.00 | 0.00 | 80 | 1012.7 |
| 20260906130504 | 85 | 104 | 1.0 | 3.0 | 0.00 | 0.00 | 0.00 | 82 | 1012.7 |
| 20260906130004 | 85 | 84 | 0.0 | 3.0 | 0.00 | 0.00 | 0.00 | 83 | 1012.7 |
| 20260906125504 | 84 | 61 | 0.0 | 3.0 | 0.00 | 0.00 | 0.00 | 85 | 1012.6 |
| 20260906125004 | 83 | 0 | 0.0 | 0.0 | 0.00 | 0.00 | 0.00 | 87 | 1012.5 |
| 20260906124504 | 82 | 0 | 0.0 | 0.0 | 0.00 | 0.00 | 0.00 | 87 | 1012.4 |
| 20260906124024 | 82 | 0 | 0.0 | 0.0 | 0.00 | 0.00 | 0.00 | 87 | 1012.3 |
| 20260906123504 | 81 | 60 | 0.0 | 1.0 | 0.00 | 0.00 | 0.00 | 88 | 1012.2 |
| 20260906123004 | 81 | 60 | 0.0 | 1.0 | 0.00 | 0.00 | 0.00 | 88 | 1012.2 |
| 20260906122504 | 81 | 0 | 0.0 | 0.0 | 0.00 | 0.00 | 0.00 | 88 | 1012.2 |
| 20260906122004 | 81 | 0 | 0.0 | 0.0 | 0.00 | 0.00 | 0.00 | 88 | 1012.1 |
| 20260906121525 | 80 | 0 | 0.0 | 0.0 | 0.00 | 0.00 | 0.00 | 89 | 1012.0 |
| 20260906121004 | 80 | 0 | 0.0 | 0.0 | 0.00 | 0.00 | 0.00 | 89 | 1012.1 |
| 20260906120503 | 79 | 0 | 0.0 | 0.0 | 0.00 | 0.00 | 0.00 | 89 | 1012.1 |
| 20260906120004 | 79 | 0 | 0.0 | 0.0 | 0.00 | 0.00 | 0.00 | 88 | 1012.1 |
| 20260906115504 | 79 | 0 | 0.0 | 0.0 | 0.00 | 0.00 | 0.00 | 89 | 1012.1 |
| 20260906115004 | 79 | 0 | 0.0 | 0.0 | 0.00 | 0.00 | 0.00 | 88 | 1012.1 |
| 20260906114504 | 79 | 0 | 0.0 | 0.0 | 0.00 | 0.00 | 0.00 | 88 | 1011.9 |
| 20260906114025 | 79 | 0 | 0.0 | 0.0 | 0.00 | 0.00 | 0.00 | 88 | 1011.7 |
| 20260906113503 | 79 | 0 | 0.0 | 0.0 | 0.00 | 0.00 | 0.00 | 88 | 1011.7 |
| 20260906113003 | 79 | 109 | 0.0 | 2.0 | 0.00 | 0.00 | 0.00 | 88 | 1011.7 |
| 20260906112504 | 79 | 109 | 0.0 | 2.0 | 0.00 | 0.00 | 0.00 | 88 | 1011.6 |
| 20260906112003 | 79 | 109 | 0.0 | 2.0 | 0.00 | 0.00 | 0.00 | 88 | 1011.5 |
| 20260906111504 | 78 | 109 | 0.0 | 2.0 | 0.00 | 0.00 | 0.00 | 88 | 1011.4 |
| 20260906111004 | 78 | 109 | 0.0 | 1.0 | 0.00 | 0.00 | 0.00 | 88 | 1011.3 |
| 20260906110525 | 78 | 0 | 0.0 | 0.0 | 0.00 | 0.00 | 0.00 | 88 | 1011.2 |
| 20260906110005 | 78 | 0 | 0.0 | 0.0 | 0.00 | 0.00 | 0.00 | 88 | 1011.1 |
| 20260906105525 | 78 | 0 | 0.0 | 0.0 | 0.00 | 0.00 | 0.00 | 88 | 1011.1 |
| 20260906105004 | 78 | 0 | 0.0 | 0.0 | 0.00 | 0.00 | 0.00 | 88 | 1011.0 |
| 20260906104524 | 78 | 0 | 0.0 | 0.0 | 0.00 | 0.00 | 0.00 | 88 | 1011.0 |
| 20260906104004 | 78 | 0 | 0.0 | 0.0 | 0.00 | 0.00 | 0.00 | 88 | 1010.9 |
| 20260906103525 | 78 | 0 | 0.0 | 0.0 | 0.00 | 0.00 | 0.00 | 88 | 1010.8 |
| 20260906103004 | 78 | 109 | 0.0 | 2.0 | 0.00 | 0.00 | 0.00 | 87 | 1010.6 |
| 20260906102503 | 78 | 109 | 0.0 | 2.0 | 0.00 | 0.00 | 0.00 | 87 | 1010.6 |
| 20260906102004 | 78 | 109 | 0.0 | 2.0 | 0.00 | 0.00 | 0.00 | 87 | 1010.5 |
| 20260906101503 | 78 | 0 | 0.0 | 0.0 | 0.00 | 0.00 | 0.00 | 87 | 1010.3 |
| 20260906101004 | 78 | 0 | 0.0 | 0.0 | 0.00 | 0.00 | 0.00 | 87 | 1010.2 |
| 20260906100503 | 78 | 0 | 0.0 | 0.0 | 0.00 | 0.00 | 0.00 | 87 | 1010.1 |
| 20260906100004 | 78 | 109 | 0.0 | 1.0 | 0.00 | 0.00 | 0.00 | 87 | 1010.1 |
| 20260906095524 | 78 | 109 | 0.0 | 1.0 | 0.00 | 0.00 | 0.00 | 87 | 1010.1 |
| 20260906095026 | 78 | 109 | 0.0 | 1.0 | 0.00 | 0.00 | 0.00 | 87 | 1009.9 |
| 20260906094504 | 78 | 0 | 0.0 | 0.0 | 0.00 | 0.00 | 0.00 | 87 | 1010.0 |
| 20260906094004 | 78 | 0 | 0.0 | 0.0 | 0.00 | 0.00 | 0.00 | 87 | 1010.0 |
| 20260906093503 | 78 | 0 | 0.0 | 0.0 | 0.00 | 0.00 | 0.00 | 87 | 1009.9 |
| 20260906093004 | 78 | 0 | 0.0 | 0.0 | 0.00 | 0.00 | 0.00 | 87 | 1010.0 |
| 20260906092504 | 78 | 0 | 0.0 | 0.0 | 0.00 | 0.00 | 0.00 | 87 | 1010.0 |
| 20260906092004 | 78 | 0 | 0.0 | 0.0 | 0.00 | 0.00 | 0.00 | 87 | 1010.1 |
| 20260906091504 | 79 | 0 | 0.0 | 0.0 | 0.00 | 0.00 | 0.00 | 87 | 1010.1 |
| 20260906091004 | 79 | 0 | 0.0 | 0.0 | 0.00 | 0.00 | 0.00 | 87 | 1010.1 |
| 20260906090504 | 79 | 0 | 0.0 | 0.0 | 0.00 | 0.00 | 0.00 | 87 | 1010.1 |
| 20260906090004 | 79 | 0 | 0.0 | 0.0 | 0.00 | 0.00 | 0.00 | 87 | 1010.1 |
| 20260906085504 | 79 | 0 | 0.0 | 0.0 | 0.00 | 0.00 | 0.00 | 87 | 1010.1 |
| 20260906085003 | 79 | 0 | 0.0 | 0.0 | 0.00 | 0.00 | 0.00 | 87 | 1010.1 |
| 20260906084504 | 79 | 0 | 0.0 | 0.0 | 0.00 | 0.00 | 0.00 | 86 | 1010.0 |
| 20260906084025 | 79 | 0 | 0.0 | 0.0 | 0.00 | 0.00 | 0.00 | 87 | 1010.0 |
| 20260906083503 | 79 | 0 | 0.0 | 0.0 | 0.00 | 0.00 | 0.00 | 87 | 1009.9 |
| 20260906083003 | 79 | 0 | 0.0 | 0.0 | 0.00 | 0.00 | 0.00 | 87 | 1010.0 |
| 20260906082525 | 79 | 0 | 0.0 | 0.0 | 0.00 | 0.00 | 0.00 | 86 | 1010.1 |
| 20260906082004 | 79 | 0 | 0.0 | 0.0 | 0.00 | 0.00 | 0.00 | 86 | 1010.1 |
| 20260906081504 | 79 | 0 | 0.0 | 0.0 | 0.00 | 0.00 | 0.00 | 86 | 1010.1 |
| 20260906081005 | 79 | 0 | 0.0 | 0.0 | 0.00 | 0.00 | 0.00 | 86 | 1010.1 |
| 20260906080503 | 79 | 0 | 0.0 | 0.0 | 0.00 | 0.00 | 0.00 | 86 | 1010.1 |
| 20260906080004 | 79 | 0 | 0.0 | 0.0 | 0.00 | 0.00 | 0.00 | 86 | 1010.1 |
| 20260906075504 | 79 | 0 | 0.0 | 0.0 | 0.00 | 0.00 | 0.00 | 86 | 1010.2 |
| 20260906075004 | 79 | 0 | 0.0 | 0.0 | 0.00 | 0.00 | 0.00 | 86 | 1010.4 |
| 20260906074504 | 79 | 0 | 0.0 | 0.0 | 0.00 | 0.00 | 0.00 | 86 | 1010.4 |
| 20260906074004 | 79 | 0 | 0.0 | 0.0 | 0.00 | 0.00 | 0.00 | 86 | 1010.5 |
| 20260906073503 | 79 | 0 | 0.0 | 0.0 | 0.00 | 0.00 | 0.00 | 86 | 1010.6 |
| 20260906073024 | 79 | 0 | 0.0 | 0.0 | 0.00 | 0.00 | 0.00 | 86 | 1010.6 |
| 20260906072504 | 79 | 0 | 0.0 | 0.0 | 0.00 | 0.00 | 0.00 | 86 | 1010.5 |
| 20260906072004 | 80 | 0 | 0.0 | 0.0 | 0.00 | 0.00 | 0.00 | 86 | 1010.4 |
| 20260906071504 | 80 | 0 | 0.0 | 0.0 | 0.00 | 0.00 | 0.00 | 86 | 1010.5 |
| 20260906071003 | 80 | 0 | 0.0 | 0.0 | 0.00 | 0.00 | 0.00 | 85 | 1010.5 |
| 20260906070504 | 80 | 0 | 0.0 | 0.0 | 0.00 | 0.00 | 0.00 | 85 | 1010.6 |
| 20260906070025 | 80 | 0 | 0.0 | 0.0 | 0.00 | 0.00 | 0.00 | 86 | 1010.6 |
| 20260906065503 | 80 | 0 | 0.0 | 0.0 | 0.00 | 0.00 | 0.00 | 85 | 1010.6 |
| 20260906065003 | 80 | 0 | 0.0 | 0.0 | 0.00 | 0.00 | 0.00 | 85 | 1010.6 |
| 20260906064525 | 80 | 0 | 0.0 | 0.0 | 0.00 | 0.00 | 0.00 | 85 | 1010.7 |
| 20260906064004 | 80 | 0 | 0.0 | 0.0 | 0.00 | 0.00 | 0.00 | 85 | 1010.8 |
| 20260906063524 | 80 | 0 | 0.0 | 0.0 | 0.00 | 0.00 | 0.00 | 85 | 1010.9 |
| 20260906063004 | 80 | 0 | 0.0 | 0.0 | 0.00 | 0.00 | 0.00 | 85 | 1011.0 |
| 20260906062504 | 80 | 0 | 0.0 | 0.0 | 0.00 | 0.00 | 0.00 | 85 | 1011.1 |
| 20260906062004 | 80 | 0 | 0.0 | 0.0 | 0.00 | 0.00 | 0.00 | 85 | 1011.1 |
| 20260906061525 | 80 | 0 | 0.0 | 0.0 | 0.00 | 0.00 | 0.00 | 85 | 1011.2 |
| 20260906061004 | 80 | 0 | 0.0 | 0.0 | 0.00 | 0.00 | 0.00 | 85 | 1011.3 |
| 20260906060504 | 80 | 0 | 0.0 | 0.0 | 0.00 | 0.00 | 0.00 | 84 | 1011.3 |
| 20260906060004 | 80 | 0 | 0.0 | 0.0 | 0.00 | 0.00 | 0.00 | 84 | 1011.4 |
| 20260906055504 | 80 | 0 | 0.0 | 0.0 | 0.00 | 0.00 | 0.00 | 84 | 1011.5 |
| 20260906055004 | 80 | 0 | 0.0 | 0.0 | 0.00 | 0.00 | 0.00 | 84 | 1011.4 |
| 20260906054524 | 80 | 0 | 0.0 | 0.0 | 0.00 | 0.00 | 0.00 | 84 | 1011.5 |
| 20260906054003 | 80 | 0 | 0.0 | 0.0 | 0.00 | 0.00 | 0.00 | 84 | 1011.5 |
| 20260906053525 | 80 | 0 | 0.0 | 0.0 | 0.00 | 0.00 | 0.00 | 84 | 1011.6 |
| 20260906053003 | 80 | 0 | 0.0 | 0.0 | 0.00 | 0.00 | 0.00 | 84 | 1011.7 |
| 20260906052504 | 81 | 0 | 0.0 | 0.0 | 0.00 | 0.00 | 0.00 | 84 | 1011.7 |
| 20260906052004 | 81 | 0 | 0.0 | 0.0 | 0.00 | 0.00 | 0.00 | 84 | 1011.8 |
| 20260906051505 | 81 | 0 | 0.0 | 0.0 | 0.00 | 0.00 | 0.00 | 83 | 1011.8 |
| 20260906051004 | 81 | 0 | 0.0 | 0.0 | 0.00 | 0.00 | 0.00 | 83 | 1011.7 |
| 20260906050525 | 81 | 0 | 0.0 | 0.0 | 0.00 | 0.00 | 0.00 | 83 | 1011.7 |
| 20260906050004 | 81 | 0 | 0.0 | 0.0 | 0.00 | 0.00 | 0.00 | 83 | 1011.6 |
| 20260906045503 | 81 | 0 | 0.0 | 0.0 | 0.00 | 0.00 | 0.00 | 83 | 1011.6 |
| 20260906045004 | 81 | 0 | 0.0 | 0.0 | 0.00 | 0.00 | 0.00 | 83 | 1011.5 |
| 20260906044504 | 82 | 0 | 0.0 | 0.0 | 0.00 | 0.00 | 0.00 | 82 | 1011.6 |
| 20260906044004 | 82 | 0 | 0.0 | 0.0 | 0.00 | 0.00 | 0.00 | 82 | 1011.6 |
| 20260906043503 | 82 | 0 | 0.0 | 0.0 | 0.00 | 0.00 | 0.00 | 82 | 1011.6 |
| 20260906043003 | 81 | 0 | 0.0 | 0.0 | 0.00 | 0.00 | 0.00 | 81 | 1011.6 |
| 20260906042504 | 82 | 0 | 0.0 | 0.0 | 0.00 | 0.00 | 0.00 | 81 | 1011.7 |
| 20260906042025 | 82 | 0 | 0.0 | 0.0 | 0.00 | 0.00 | 0.00 | 81 | 1011.7 |
| 20260906041504 | 82 | 0 | 0.0 | 0.0 | 0.00 | 0.00 | 0.00 | 81 | 1011.7 |
| 20260906041003 | 82 | 0 | 0.0 | 0.0 | 0.00 | 0.00 | 0.00 | 81 | 1011.8 |
| 20260906040504 | 82 | 0 | 0.0 | 0.0 | 0.00 | 0.00 | 0.00 | 81 | 1011.8 |
| 20260906040004 | 82 | 0 | 0.0 | 0.0 | 0.00 | 0.00 | 0.00 | 81 | 1011.8 |
| 20260906035504 | 82 | 0 | 0.0 | 0.0 | 0.00 | 0.00 | 0.00 | 80 | 1011.9 |
| 20260906035004 | 82 | 0 | 0.0 | 0.0 | 0.00 | 0.00 | 0.00 | 80 | 1012.1 |
| 20260906034503 | 82 | 0 | 0.0 | 0.0 | 0.00 | 0.00 | 0.00 | 80 | 1012.2 |
| 20260906034025 | 82 | 0 | 0.0 | 0.0 | 0.00 | 0.00 | 0.00 | 80 | 1012.0 |
| 20260906033504 | 82 | 0 | 0.0 | 0.0 | 0.00 | 0.00 | 0.00 | 80 | 1012.1 |
| 20260906033004 | 82 | 0 | 0.0 | 0.0 | 0.00 | 0.00 | 0.00 | 79 | 1012.1 |
| 20260906032504 | 82 | 0 | 0.0 | 0.0 | 0.00 | 0.00 | 0.00 | 79 | 1012.2 |
| 20260906032004 | 83 | 0 | 0.0 | 0.0 | 0.00 | 0.00 | 0.00 | 79 | 1012.2 |
| 20260906031504 | 83 | 0 | 0.0 | 0.0 | 0.00 | 0.00 | 0.00 | 79 | 1012.2 |
| 20260906031025 | 83 | 0 | 0.0 | 0.0 | 0.00 | 0.00 | 0.00 | 79 | 1012.2 |
| 20260906030503 | 83 | 0 | 0.0 | 0.0 | 0.00 | 0.00 | 0.00 | 79 | 1012.2 |
| 20260906030005 | 83 | 0 | 0.0 | 0.0 | 0.00 | 0.00 | 0.00 | 79 | 1012.2 |
| 20260906025504 | 83 | 0 | 0.0 | 0.0 | 0.00 | 0.00 | 0.00 | 79 | 1012.2 |
| 20260906025025 | 83 | 0 | 0.0 | 0.0 | 0.00 | 0.00 | 0.00 | 78 | 1012.2 |
| 20260906024504 | 83 | 0 | 0.0 | 0.0 | 0.00 | 0.00 | 0.00 | 78 | 1012.2 |
| 20260906024004 | 83 | 0 | 0.0 | 0.0 | 0.00 | 0.00 | 0.00 | 78 | 1012.2 |
| 20260906023504 | 83 | 0 | 0.0 | 0.0 | 0.00 | 0.00 | 0.00 | 78 | 1012.2 |
| 20260906023004 | 83 | 0 | 0.0 | 0.0 | 0.00 | 0.00 | 0.00 | 78 | 1012.2 |
| 20260906022504 | 83 | 0 | 0.0 | 0.0 | 0.00 | 0.00 | 0.00 | 78 | 1012.2 |
| 20260906022024 | 84 | 0 | 0.0 | 0.0 | 0.00 | 0.00 | 0.00 | 78 | 1012.5 |
| 20260906021504 | 84 | 0 | 0.0 | 0.0 | 0.00 | 0.00 | 0.00 | 77 | 1012.5 |
| 20260906021003 | 84 | 0 | 0.0 | 0.0 | 0.00 | 0.00 | 0.00 | 77 | 1012.4 |
| 20260906020504 | 84 | 0 | 0.0 | 0.0 | 0.00 | 0.00 | 0.00 | 77 | 1012.3 |
| 20260906020004 | 84 | 0 | 0.0 | 0.0 | 0.00 | 0.00 | 0.00 | 77 | 1012.2 |
| 20260906015504 | 84 | 0 | 0.0 | 0.0 | 0.00 | 0.00 | 0.00 | 77 | 1012.3 |
| 20260906015004 | 84 | 0 | 0.0 | 0.0 | 0.00 | 0.00 | 0.00 | 77 | 1012.2 |
| 20260906014504 | 84 | 0 | 0.0 | 0.0 | 0.00 | 0.00 | 0.00 | 77 | 1012.2 |
| 20260906014004 | 84 | 0 | 0.0 | 0.0 | 0.00 | 0.00 | 0.00 | 76 | 1012.1 |
| 20260906013504 | 84 | 0 | 0.0 | 0.0 | 0.00 | 0.00 | 0.00 | 75 | 1011.9 |
| 20260906013004 | 84 | 0 | 0.0 | 0.0 | 0.00 | 0.00 | 0.00 | 75 | 1011.9 |
| 20260906012503 | 85 | 0 | 0.0 | 0.0 | 0.00 | 0.00 | 0.00 | 75 | 1011.8 |
| 20260906012024 | 85 | 0 | 0.0 | 0.0 | 0.00 | 0.00 | 0.00 | 75 | 1011.8 |
| 20260906011504 | 85 | 0 | 0.0 | 0.0 | 0.00 | 0.00 | 0.00 | 75 | 1012.0 |
| 20260906011004 | 85 | 0 | 0.0 | 0.0 | 0.00 | 0.00 | 0.00 | 75 | 1012.0 |
| 20260906010504 | 85 | 0 | 0.0 | 0.0 | 0.00 | 0.00 | 0.00 | 75 | 1011.8 |
| 20260906010004 | 85 | 304 | 0.0 | 2.0 | 0.00 | 0.00 | 0.00 | 75 | 1011.7 |
| 20260906005504 | 85 | 304 | 0.0 | 2.0 | 0.00 | 0.00 | 0.00 | 75 | 1011.8 |
| 20260906005003 | 86 | 304 | 0.0 | 1.0 | 0.00 | 0.00 | 0.00 | 74 | 1011.6 |
| 20260906004503 | 86 | 304 | 0.0 | 2.0 | 0.00 | 0.00 | 0.00 | 74 | 1011.6 |
| 20260906004004 | 86 | 303 | 1.0 | 3.0 | 0.00 | 0.00 | 0.00 | 74 | 1011.8 |
| 20260906003503 | 86 | 309 | 1.0 | 4.0 | 0.00 | 0.00 | 0.00 | 73 | 1011.8 |
| 20260906003025 | 86 | 313 | 1.0 | 4.0 | 0.00 | 0.00 | 0.00 | 73 | 1011.7 |
| 20260906002504 | 86 | 301 | 2.0 | 4.0 | 0.00 | 0.00 | 0.00 | 73 | 1011.6 |
| 20260906002003 | 86 | 287 | 3.0 | 7.0 | 0.00 | 0.00 | 0.00 | 72 | 1011.6 |
| 20260906001503 | 86 | 286 | 4.0 | 7.0 | 0.00 | 0.00 | 0.00 | 72 | 1011.6 |
| 20260906001004 | 86 | 302 | 3.0 | 6.0 | 0.00 | 0.00 | 0.00 | 72 | 1011.6 |
| 20260906000525 | 86 | 317 | 2.0 | 6.0 | 0.00 | 0.00 | 0.00 | 72 | 1011.7 |
| 20260906000004 | 86 | 311 | 3.0 | 7.0 | 0.00 | 0.00 | 0.00 | 72 | 1011.6 |
| 20260905235505 | 86 | 305 | 3.0 | 7.0 | 0.00 | 0.00 | 0.00 | 72 | 1011.6 |
| 20260905235004 | 86 | 296 | 3.0 | 6.0 | 0.00 | 0.00 | 0.00 | 72 | 1011.6 |
| 20260905234503 | 86 | 293 | 4.0 | 7.0 | 0.00 | 0.00 | 0.00 | 72 | 1011.6 |
| 20260905234003 | 86 | 295 | 4.0 | 7.0 | 0.00 | 0.00 | 0.00 | 71 | 1011.5 |
| 20260905233504 | 87 | 295 | 4.0 | 7.0 | 0.00 | 0.00 | 0.00 | 71 | 1011.5 |
| 20260905233024 | 87 | 297 | 3.0 | 6.0 | 0.00 | 0.00 | 0.00 | 71 | 1011.5 |
| 20260905232504 | 87 | 298 | 3.0 | 8.0 | 0.00 | 0.00 | 0.00 | 71 | 1011.4 |
| 20260905232025 | 87 | 302 | 3.0 | 8.0 | 0.00 | 0.00 | 0.00 | 71 | 1011.6 |
| 20260905231504 | 88 | 299 | 3.0 | 10.0 | 0.00 | 0.00 | 0.00 | 70 | 1011.6 |
| 20260905231003 | 88 | 298 | 5.0 | 10.0 | 0.00 | 0.00 | 0.00 | 70 | 1011.5 |
| 20260905230504 | 88 | 296 | 4.0 | 8.0 | 0.00 | 0.00 | 0.00 | 70 | 1011.4 |
| 20260905230004 | 88 | 294 | 4.0 | 8.0 | 0.00 | 0.00 | 0.00 | 70 | 1011.5 |
| 20260905225504 | 88 | 300 | 4.0 | 10.0 | 0.00 | 0.00 | 0.00 | 70 | 1011.5 |
| 20260905225025 | 88 | 305 | 4.0 | 10.0 | 0.00 | 0.00 | 0.00 | 70 | 1011.5 |
| 20260905224504 | 88 | 301 | 5.0 | 10.0 | 0.00 | 0.00 | 0.00 | 69 | 1011.5 |